カタログに戻る

STARLINK-34890

運用中通信VLEO
NORAD 65760·PAYLOAD·🇺🇸 United States

打ち上げ Sep 25, 2025 から Cape Canaveral Space Force Station

Loading…

次のパス (今後24時間)

TLE

最新Source: CelesTrak SupGP

元期: Sep 15, 2026, 02:43 UTC

1 65760C 25216AC  26258.11368056 -.00019736  00000+0 -58315-3 0  2583
2 65760  53.1575 170.5739 0001355  80.9869 146.6951 15.34398630    13

AllMySatでSTARLINK-34890をリアルタイム追跡

Download on the App Store